Location: *
(43.0167°S, 179.9000°E)
Time: 20:39:29
(UTC+00:00)

Cosmos 614 Rocket - Pass Details

Date: 12 August 2024
Orbit: 730 x 760 km, 74.1° (Epoch: 19 September)

Event Time Altitude Azimuth Distance (km) Brightness Sun altitude
Exits shadow 17:14:46 10° 205° (SSW) 2,329 6.2 -19.1°
Reaches altitude 10° 17:14:47 10° 205° (SSW) 2,323 6.2 -19.1°
Maximum altitude 17:20:02 68° 287° (WNW) 823 3.9 -18.2°
Drops below altitude 10° 17:25:10 10° 9° (N) 2,278 6.6 -17.2°
Sets 17:27:30 0° 11° (N) 3,189 7.4 -16.8°
